[[{"header":{"parameterUnit":"m.s-1","parameterCategory":1,"la1":30.2992,"la2":30.254,"lo1":-89.0895,"lo2":-89.0443,"dy":0.0025,"dx":0.0025,"nx":19,"ny":19,"refTime":"2026-04-05T03:00:00:Z","depth":0,"parameterNumber":2,"parameterNumberName":"U-component_of_WINDS"},"data":[0,0,0,-4.6693,-4.6696,-4.6812,-4.6813,-4.6968,-4.6969,0,0,0,0,0,0,0,0,0,0,0,-4.6662,-4.6663,-4.6693,-4.6696,-4.6812,-4.6813,-4.6967,-4.6969,0,0,0,0,0,0,0,0,0,0,0,-4.6661,-4.6663,-4.6664,-4.6697,-4.6812,-4.6813,-4.6967,-4.6877,0,0,0,0,0,0,0,0,0,0,-4.6763,-4.6737,-4.6662,-4.6664,-4.6697,-4.6812,-4.6813,-4.6873,-4.6883,-4.6918,0,-4.6949,0,-4.6962,-4.698,-4.698,0,0,0,-4.6694,-4.6728,-4.6757,-4.6664,-4.6698,-4.6812,-4.6759,-4.6878,-4.689,-4.6931,-4.6951,-4.6956,-4.6964,-4.6981,-4.6982,-4.719,-4.7191,0,0,-4.6687,-4.6684,-4.675,-4.6765,-4.6747,-4.6755,-4.6763,-4.6885,-4.6906,-4.6951,-4.696,-4.6967,-4.6982,-4.6983,-4.7189,-4.7191,0,0,0,-4.667,-4.668,-4.6705,-4.6759,-4.6779,-4.6759,-4.6767,-4.6901,-4.691,-4.6962,-4.6968,-4.6983,-4.6985,-4.7188,-4.719,-4.7239,0,0,0,-4.6667,-4.667,-4.6703,-4.6702,-4.6777,-4.6841,-4.6781,-4.6901,-4.6915,-4.6968,-4.6983,-4.6986,-4.7187,-4.7189,-4.7235,-4.7262,0,0,0,-4.6653,-4.6668,-4.6686,-4.6701,-4.6752,-4.6839,-4.6855,-4.6904,-4.692,-4.6981,-4.6987,-4.7186,-4.7189,-4.7232,-4.7256,-4.7315,0,0,0,-4.6638,-4.6727,-4.6687,-4.6791,-4.6751,-4.687,-4.6854,-4.6944,-4.7002,-4.6984,-4.7187,-4.719,-4.7231,-4.7253,-4.7312,-4.7363,-4.7384,0,0,-4.6749,-4.6741,-4.6802,-4.6769,-4.6895,-4.6853,-4.6986,-4.7042,-4.7051,-4.7144,-4.7149,-4.7237,-4.7256,-4.7315,-4.7512,-4.7528,0,0,0,-4.6836,-4.688,-4.6914,-4.697,-4.7017,-4.7059,-4.7096,-4.7118,-4.7197,-4.7098,-4.7276,-4.7287,-4.7322,-4.7346,-4.7361,-4.739,-4.7202,-4.7201,-4.7201,-4.6985,-4.6994,-4.7097,-4.712,-4.7176,-4.7215,-4.726,-4.7296,-4.7287,-4.733,-4.7356,-4.7474,-4.7503,-4.7514,-4.7545,-4.7386,-4.7386,-4.7387,-4.7387,-4.7147,-4.721,-4.7201,-4.7296,-4.7306,-4.7387,-4.743,-4.7422,-4.7499,-4.7455,-4.7485,-4.7433,-4.7532,-4.756,-4.7391,-4.739,-4.7389,-4.7389,-4.7389,-4.7242,-4.7274,-4.7301,-4.7386,-4.7451,-4.7473,-4.7549,-4.7555,-4.7562,-4.7593,-4.7621,-4.7621,-4.7619,-4.7607,-4.7607,-4.7608,-4.7608,-4.7609,-4.7609,-4.733,-4.7359,-4.7421,-4.7482,-4.7521,-4.7573,-4.7618,-4.7656,-4.7701,-4.77,-4.77,-4.7687,-4.7542,-4.7503,-4.7615,-4.7614,-4.7613,-4.7613,-4.7612,-4.7484,-4.7452,-4.7548,-4.7587,-4.7661,-4.7726,-4.7736,-4.7815,-4.7848,-4.7886,-4.7869,-4.7762,-4.7753,-4.7741,-4.7709,-4.7867,-4.7867,-4.7867,-4.7867,-4.7563,-4.7561,-4.7663,-4.7725,-4.7788,-4.7808,-4.7919,-4.7957,-4.799,-4.8012,-4.7992,-4.7952,-4.794,-4.7938,-4.7922,-4.7892,-4.8094,-4.8094,-4.8094,-4.7658,-4.7664,-4.7755,-4.7788,-4.7848,-4.79,-4.8004,-4.8078,-4.811,-4.8103,-4.8029,-4.802,-4.7955,-4.7934,-4.792,-4.7895,-4.7841,0,0]},{"header":{"parameterUnit":"m.s-1","parameterCategory":1,"la1":30.2992,"la2":30.254,"lo1":-89.0895,"lo2":-89.0443,"dy":0.0025,"dx":0.0025,"nx":19,"ny":19,"refTime":"2026-04-05T03:00:00:Z","depth":0,"parameterNumber":3,"parameterNumberName":"V-component_of_WINDS"},"data":[0,0,0,4.6039,4.604,4.6121,4.6122,4.6202,4.6203,0,0,0,0,0,0,0,0,0,0,0,4.6002,4.6002,4.6039,4.6041,4.6121,4.6122,4.6202,4.6203,0,0,0,0,0,0,0,0,0,0,0,4.6002,4.6002,4.6002,4.6041,4.6121,4.6122,4.6202,4.6149,0,0,0,0,0,0,0,0,0,0,4.6074,4.6027,4.6002,4.6002,4.6041,4.6121,4.6122,4.6147,4.6152,4.6156,0,4.6157,0,4.6181,4.6207,4.6207,0,0,0,4.605,4.6022,4.6057,4.6002,4.6042,4.6121,4.6088,4.615,4.6156,4.6163,4.6159,4.6162,4.6183,4.6207,4.6208,4.6205,4.6204,0,0,4.6045,4.6009,4.6052,4.606,4.6047,4.6085,4.609,4.6154,4.6146,4.6159,4.6164,4.6184,4.6208,4.6208,4.6205,4.6205,0,0,0,4.6026,4.6005,4.6038,4.6056,4.6073,4.6087,4.6093,4.6143,4.6157,4.6165,4.6185,4.6208,4.6209,4.6206,4.6205,4.6149,0,0,0,4.6024,4.5994,4.6036,4.6014,4.6071,4.6109,4.6079,4.6152,4.6161,4.6185,4.6208,4.6209,4.6206,4.6206,4.6152,4.6128,0,0,0,4.6001,4.5992,4.5999,4.6012,4.6046,4.6109,4.6127,4.6155,4.6172,4.6207,4.621,4.6207,4.6206,4.6155,4.6133,4.6119,0,0,0,4.5965,4.5945,4.5997,4.5983,4.6045,4.6074,4.6127,4.615,4.6173,4.6208,4.6206,4.6205,4.6155,4.6135,4.6121,4.6101,4.6089,0,0,4.592,4.5938,4.5933,4.5983,4.5994,4.6065,4.6068,4.6122,4.6157,4.6187,4.6187,4.6151,4.6133,4.6119,4.6035,4.6025,0,0,0,4.5907,4.5902,4.5913,4.5935,4.5979,4.6014,4.6073,4.6094,4.6122,4.6165,4.6144,4.6134,4.6127,4.6119,4.6111,4.6109,4.62,4.62,4.62,4.5788,4.5838,4.5834,4.5894,4.5915,4.5978,4.5999,4.6038,4.6079,4.6073,4.6082,4.6025,4.6015,4.6009,4.6006,4.6075,4.6075,4.6075,4.6075,4.5727,4.5729,4.579,4.5807,4.586,4.5874,4.5935,4.5965,4.5986,4.6022,4.6019,4.6053,4.5997,4.5997,4.6071,4.6072,4.6072,4.6073,4.6073,4.5655,4.5665,4.5693,4.5734,4.5759,4.5821,4.584,4.5887,4.593,4.5927,4.5943,4.5944,4.5952,4.5932,4.5932,4.5931,4.5931,4.5931,4.5931,4.5569,4.5603,4.5615,4.5663,4.5685,4.5721,4.5787,4.5809,4.5847,4.5879,4.588,4.5922,4.5982,4.5997,4.5928,4.5929,4.5929,4.5929,4.5929,4.5489,4.5516,4.5533,4.5556,4.5619,4.5642,4.5703,4.5747,4.5772,4.5781,4.5826,4.5862,4.5884,4.5891,4.5903,4.5814,4.5814,4.5814,4.5814,4.5429,4.5446,4.5477,4.5511,4.555,4.5608,4.5628,4.568,4.5737,4.5756,4.5776,4.5797,4.5802,4.5821,4.5829,4.5841,4.5739,4.5739,4.5739,4.5383,4.5407,4.5414,4.5474,4.5527,4.5572,4.5592,4.5629,4.5699,4.5737,4.5773,4.5776,4.581,4.5818,4.5854,4.5866,4.589,0,0]}]]